Weather History for Colby, KS

Change the Weather History Date:

Wednesday, March 20, 2013

  Actual Average (KGLD) Record (KGLD)
Temperature  
Mean Temperature 32 °F 42 °F  
Max Temperature 50 °F 56 °F 90 °F (1907)
Min Temperature 14 °F 28 °F -17 °F (1965)
Degree Days  
Heating Degree Days 33 23  
Month to date heating degree days 519  
Since 1 July heating degree days 4936  
Cooling Degree Days 0 0  
Month to date cooling degree days 0  
Year to date cooling degree days 0  
Moisture  
Dew Point 22 °F    
Average Humidity 61    
Maximum Humidity 93    
Minimum Humidity 32    
Precipitation  
Precipitation 0.00 in 0.04 in 1.73 in (2006)
Month to date precipitation 0.63  
Year to date precipitation 1.50  
Snow  
Snow 0.00 in 0.30 in - ()
Month to date snowfall 4.1  
Since 1 July snowfall 28.1  
Snow Depth -    
Sea Level Pressure  
Sea Level Pressure 30.17 in    
Wind  
Wind Speed 10 mph (SE)    
Max Wind Speed 23 mph    
Max Gust Speed 29 mph    
Visibility 10 miles    
Events      
T = Trace of Precipitation, MM = Missing Value Source: NWS Daily Summary

Daily Weather History Graph

Daily Weather History Graph

Search for Another Location

Airport:

Trip Planner

Search our weather history database for the weather conditions in past years. The results will help you decide how hot, cold, wet, or windy it might be!

Date:

Astronomy

Mar. 20, 2013 Rise Set
Actual Time 7:47 AM CDT 7:56 PM CDT
Civil Twilight 7:20 AM CDT 8:23 PM CDT
Nautical Twilight 6:49 AM CDT 8:54 PM CDT
Astronomical Twilight 6:17 AM CDT 9:26 PM CDT
Moon 1:34 PM CDT (3/20) 3:26 AM CDT (3/20)
Length of Visible Light 13h 02m
Length of Day
12h 09m
First Quarter, 59% of the Moon is Illuminated
Mar 20
First Quarter
Mar 27
Full
Apr 2
Last Quarter
Apr 10
New
Apr 18
First Quarter

Hourly Weather History & Observations

Time (CDT) Temp. Windchill Dew Point Humidity Pressure Visibility Wind Dir Wind Speed Gust Speed Precip Events Conditions
12:15 AM 30.2 °F 20.8 °F 23.0 °F 75% 30.31 in 10.0 mi North 11.5 mph - N/A   Clear
12:35 AM 30.2 °F 21.9 °F 23.0 °F 75% 30.32 in 10.0 mi North 9.2 mph - N/A   Clear
12:55 AM 30.2 °F 22.6 °F 23.0 °F 75% 30.32 in 10.0 mi North 8.1 mph - N/A   Clear
1:15 AM 28.4 °F - 23.0 °F 80% 30.34 in 10.0 mi Calm Calm - N/A   Clear
1:35 AM 26.6 °F 19.1 °F 21.2 °F 80% 30.34 in 10.0 mi NNW 6.9 mph - N/A   Clear
1:55 AM 26.6 °F 19.1 °F 23.0 °F 86% 30.34 in 10.0 mi NNW 6.9 mph - N/A   Clear
2:15 AM 26.6 °F 18.2 °F 23.0 °F 86% 30.34 in 10.0 mi North 8.1 mph - N/A   Clear
2:35 AM 28.4 °F 19.7 °F 24.8 °F 86% 30.35 in 10.0 mi North 9.2 mph - N/A   Clear
2:55 AM 28.4 °F 18.5 °F 24.8 °F 86% 30.36 in 10.0 mi North 11.5 mph - N/A   Clear
3:15 AM 26.6 °F 17.5 °F 23.0 °F 86% 30.37 in 10.0 mi North 9.2 mph - N/A   Clear
3:35 AM 26.6 °F 17.5 °F 23.0 °F 86% 30.37 in 10.0 mi North 9.2 mph - N/A   Clear
3:55 AM 26.6 °F 20.0 °F 23.0 °F 86% 30.37 in 10.0 mi North 5.8 mph - N/A   Clear
4:15 AM 24.8 °F 19.1 °F 21.2 °F 86% 30.36 in 10.0 mi North 4.6 mph - N/A   Clear
4:35 AM 24.8 °F 16.1 °F 21.2 °F 86% 30.36 in 10.0 mi North 8.1 mph - N/A   Clear
4:55 AM 23.0 °F 14.7 °F 21.2 °F 93% 30.35 in 10.0 mi North 6.9 mph - N/A   Clear
5:15 AM 23.0 °F 13.9 °F 19.4 °F 86% 30.34 in 10.0 mi North 8.1 mph - N/A   Clear
5:35 AM 23.0 °F 13.9 °F 19.4 °F 86% 30.34 in 10.0 mi North 8.1 mph - N/A   Clear
5:55 AM 23.0 °F 15.8 °F 19.4 °F 86% 30.34 in 10.0 mi North 5.8 mph - N/A   Clear
6:15 AM 19.4 °F 11.5 °F 17.6 °F 93% 30.35 in 10.0 mi North 5.8 mph - N/A   Clear
6:35 AM 19.4 °F 12.8 °F 17.6 °F 93% 30.35 in 10.0 mi North 4.6 mph - N/A   Clear
6:55 AM 19.4 °F 14.3 °F 15.8 °F 86% 30.34 in 10.0 mi North 3.5 mph - N/A   Clear
7:15 AM 15.8 °F - 14.0 °F 93% 30.34 in 10.0 mi Calm Calm - N/A   Clear
7:35 AM 14.0 °F 8.2 °F 12.2 °F 93% 30.35 in 10.0 mi West 3.5 mph - N/A   Clear
8:15 AM 19.4 °F - 17.6 °F 93% 30.34 in 10.0 mi Calm Calm - N/A   Clear
8:35 AM 19.4 °F - 17.6 °F 93% 30.32 in 10.0 mi Calm Calm - N/A   Clear
8:55 AM 23.0 °F 18.4 °F 19.4 °F 86% 30.32 in 10.0 mi SW 3.5 mph - N/A   Clear
9:15 AM 26.6 °F 22.6 °F 19.4 °F 74% 30.32 in 10.0 mi South 3.5 mph - N/A   Clear
9:35 AM 30.2 °F 23.4 °F 19.4 °F 64% 30.33 in 10.0 mi SSE 6.9 mph - N/A   Clear
9:55 AM 30.2 °F 23.4 °F 17.6 °F 60% 30.32 in 10.0 mi SE 6.9 mph - N/A   Clear
10:15 AM 32.0 °F 24.8 °F 14.0 °F 48% 30.32 in 10.0 mi SE 8.1 mph - N/A   Clear
10:35 AM 32.0 °F 23.6 °F 14.0 °F 48% 30.32 in 10.0 mi SE 10.4 mph - N/A   Clear
10:55 AM 33.8 °F 25.3 °F 14.0 °F 44% 30.31 in 10.0 mi SE 11.5 mph - N/A   Clear
11:15 AM 33.8 °F 27.0 °F 14.0 °F 44% 30.30 in 10.0 mi SSE 8.1 mph - N/A   Clear
11:35 AM 35.6 °F 27.5 °F 14.0 °F 41% 30.29 in 10.0 mi South 11.5 mph 18.4 mph N/A   Clear
11:55 AM 35.6 °F 27.1 °F 15.8 °F 44% 30.28 in 10.0 mi SE 12.7 mph 17.3 mph N/A   Clear
12:15 PM 37.4 °F 29.3 °F 17.6 °F 45% 30.26 in 10.0 mi SE 12.7 mph 17.3 mph N/A   Clear
12:35 PM 39.2 °F 31.6 °F 17.6 °F 42% 30.25 in 10.0 mi South 12.7 mph 18.4 mph N/A   Clear
12:55 PM 41.0 °F 33.9 °F 17.6 °F 39% 30.23 in 10.0 mi SSE 12.7 mph - N/A   Clear
1:15 PM 41.0 °F 33.9 °F 19.4 °F 42% 30.20 in 10.0 mi SSE 12.7 mph 21.9 mph N/A   Clear
1:35 PM 42.8 °F 35.8 °F 19.4 °F 39% 30.19 in 10.0 mi SSE 13.8 mph 21.9 mph N/A   Clear
1:55 PM 44.6 °F 37.2 °F 19.4 °F 37% 30.17 in 10.0 mi South 17.3 mph 24.2 mph N/A   Clear
2:15 PM 44.6 °F 38.1 °F 19.4 °F 37% 30.16 in 10.0 mi South 13.8 mph 23.0 mph N/A   Clear
2:35 PM 44.6 °F 37.2 °F 19.4 °F 37% 30.14 in 10.0 mi South 17.3 mph 27.6 mph N/A   Clear
2:55 PM 46.4 °F 38.7 °F 19.4 °F 34% 30.12 in 10.0 mi SSE 20.7 mph 27.6 mph N/A   Clear
3:15 PM 46.4 °F 39.0 °F 21.2 °F 37% 30.09 in 10.0 mi South 19.6 mph 25.3 mph N/A   Clear
3:35 PM 48.2 °F - 21.2 °F 34% 30.07 in 10.0 mi South 16.1 mph 24.2 mph N/A   Clear
3:55 PM 50.0 °F - 21.2 °F 32% 30.05 in 10.0 mi South 16.1 mph 27.6 mph N/A   Clear
4:15 PM 50.0 °F - 23.0 °F 35% 30.03 in 10.0 mi South 19.6 mph 23.0 mph N/A   Clear
4:35 PM 50.0 °F - 23.0 °F 35% 30.02 in 10.0 mi SSE 23.0 mph 26.5 mph N/A   Clear
4:55 PM 50.0 °F - 23.0 °F 35% 30.01 in 10.0 mi South 17.3 mph 28.8 mph N/A   Clear
5:15 PM 50.0 °F - 24.8 °F 37% 29.99 in 10.0 mi South 19.6 mph 24.2 mph N/A   Clear
5:35 PM 50.0 °F - 24.8 °F 37% 29.98 in 10.0 mi SSE 16.1 mph 24.2 mph N/A   Clear
5:55 PM 50.0 °F - 26.6 °F 40% 29.97 in 10.0 mi SSE 18.4 mph - N/A   Clear
6:15 PM 50.0 °F - 26.6 °F 40% 29.96 in 10.0 mi SSE 18.4 mph 23.0 mph N/A   Clear
6:35 PM 50.0 °F - 26.6 °F 40% 29.95 in 10.0 mi SSE 18.4 mph 21.9 mph N/A   Scattered Clouds
6:55 PM 50.0 °F - 26.6 °F 40% 29.94 in 10.0 mi SE 17.3 mph 21.9 mph N/A   Scattered Clouds
7:15 PM 50.0 °F - 26.6 °F 40% 29.93 in 10.0 mi SE 13.8 mph 21.9 mph N/A   Scattered Clouds
7:55 PM 46.4 °F 40.4 °F 26.6 °F 46% 29.91 in 10.0 mi SE 13.8 mph - N/A   Mostly Cloudy
8:15 PM 44.6 °F 38.1 °F 26.6 °F 49% 29.90 in 10.0 mi SE 13.8 mph - N/A   Scattered Clouds
8:35 PM 42.8 °F 35.8 °F 26.6 °F 53% 29.89 in 10.0 mi SE 13.8 mph - N/A   Scattered Clouds
8:55 PM 42.8 °F 35.1 °F 26.6 °F 53% 29.88 in 10.0 mi SE 16.1 mph - N/A   Clear
9:15 PM 42.8 °F 34.8 °F 26.6 °F 53% 29.87 in 10.0 mi SE 17.3 mph 24.2 mph N/A   Clear
9:35 PM 42.8 °F 35.1 °F 26.6 °F 53% 29.87 in 10.0 mi SE 16.1 mph 25.3 mph N/A   Clear
9:55 PM 42.8 °F 34.8 °F 28.4 °F 57% 29.87 in 10.0 mi SE 17.3 mph - N/A   Clear
10:15 PM 42.8 °F 34.8 °F 28.4 °F 57% 29.86 in 10.0 mi SE 17.3 mph 25.3 mph N/A   Scattered Clouds
10:35 PM 42.8 °F 34.8 °F 28.4 °F 57% 29.86 in 10.0 mi SE 17.3 mph - N/A   Mostly Cloudy
10:55 PM 42.8 °F 34.0 °F 30.2 °F 61% 29.85 in 10.0 mi SE 20.7 mph 27.6 mph N/A   Scattered Clouds
11:15 PM 41.0 °F 31.6 °F 30.2 °F 65% 29.84 in 10.0 mi SE 20.7 mph 26.5 mph N/A   Scattered Clouds
11:35 PM 41.0 °F 31.4 °F 30.2 °F 65% 29.84 in 10.0 mi SSE 21.9 mph 27.6 mph N/A   Mostly Cloudy
11:55 PM 41.0 °F 31.6 °F 28.4 °F 61% 29.83 in 10.0 mi SE 20.7 mph 27.6 mph N/A   Mostly Cloudy